Terminal Aerodrome Forecast
Issued by NWS

Home | Current Version | Previous Version | Text Only | Print | Product List | Glossary On
Versions: 1 2 3 4 5 6 7 8 9 10 11 12 13 14 15 16 17 18 19 20
000
FTUS41 KGYX 300927 AAC
TAFPSM
TAF AMD
KPSM 300927Z 3009/3106 VRB03KT 6SM -SN BR OVC025
      TEMPO 3009/3010 1/4SM +SN FZFG OVC002
     FM301000 10004KT 1 1/2SM -SN BR OVC015
     FM301300 11006KT 3/4SM -SN BR OVC007
     FM301800 13008KT 1/2SM SN OVC004
     FM310000 33013G24KT 3SM -SHSN OVC025=

USA.gov is the U.S. government's official web portal to all federal, state and local government web resources and services.